Location: Bagnolo San Vito
(45.0833°N, 10.8833°E)
Time: 00:17:57
(UTC+00:00)

SL-4 R/B - Pass Details

Date: 03 March 2021
Orbit: 428 x 663 km, 51.6° (Epoch: 17 April)

Event Time Altitude Azimuth Distance (km) Brightness Sun altitude
Rises 18:11:50 0° 295° (WNW) 2,496 6.8 -12.3°
Reaches altitude 10° 18:14:12 10° 306° (NW) 1,588 5.3 -12.7°
Maximum altitude 18:17:23 31° 10° (N) 806 2.8 -13.3°
Enters shadow 18:19:05 20° 58° (ENE) 1,075 3.0 -13.6°
